TimeEST,TemperatureF,Dew PointF,Humidity,Sea Level PressureIn,VisibilityMPH,Wind Direction,Wind SpeedMPH,Gust SpeedMPH,PrecipitationIn,Events,Conditions,WindDirDegrees,DateUTC
12:16 AM,24.4,20.1,84,29.70,10.0,SSE,12.7,16.1,N/A,,Overcast,160,2013-12-19 05:16:00
12:35 AM,24.4,20.1,84,29.69,10.0,South,9.2,-,N/A,,Overcast,170,2013-12-19 05:35:00
12:56 AM,24.6,20.3,84,29.68,10.0,SSE,9.2,-,N/A,,Overcast,160,2013-12-19 05:56:00
1:16 AM,24.8,20.7,84,29.67,10.0,SSE,10.4,-,N/A,,Overcast,160,2013-12-19 06:16:00
1:36 AM,24.8,20.8,85,29.67,10.0,South,10.4,-,N/A,,Overcast,170,2013-12-19 06:36:00
1:56 AM,25.0,20.8,84,29.67,10.0,South,9.2,-,N/A,,Overcast,170,2013-12-19 06:56:00
2:16 AM,25.2,21.2,85,29.68,10.0,South,6.9,-,N/A,,Overcast,180,2013-12-19 07:16:00
2:36 AM,24.8,21.2,86,29.68,10.0,South,8.1,-,N/A,,Overcast,180,2013-12-19 07:36:00
2:56 AM,24.8,21.2,86,29.69,10.0,South,8.1,-,N/A,,Mostly Cloudy,190,2013-12-19 07:56:00
3:16 AM,24.4,21.2,87,29.70,10.0,SSW,6.9,-,N/A,,Mostly Cloudy,200,2013-12-19 08:16:00
3:36 AM,24.4,21.6,89,29.70,10.0,WSW,6.9,-,N/A,,Mostly Cloudy,240,2013-12-19 08:36:00
3:56 AM,23.9,20.7,87,29.70,10.0,West,8.1,-,N/A,,Scattered Clouds,270,2013-12-19 08:56:00
4:16 AM,24.8,21.0,86,29.70,10.0,West,8.1,-,N/A,,Clear,270,2013-12-19 09:16:00
4:36 AM,24.8,20.5,84,29.71,10.0,West,10.4,-,N/A,,Clear,280,2013-12-19 09:36:00
4:56 AM,24.4,20.3,84,29.72,10.0,WNW,12.7,17.3,N/A,,Clear,290,2013-12-19 09:56:00
5:16 AM,23.7,19.8,85,29.72,10.0,West,11.5,-,N/A,,Clear,270,2013-12-19 10:16:00
5:36 AM,22.8,19.4,87,29.74,10.0,West,10.4,-,N/A,,Clear,280,2013-12-19 10:36:00
5:56 AM,22.5,19.0,87,29.74,10.0,WNW,10.4,-,N/A,,Clear,300,2013-12-19 10:56:00
6:16 AM,22.5,19.2,87,29.76,10.0,West,9.2,-,N/A,,Clear,280,2013-12-19 11:16:00
6:36 AM,21.9,19.0,89,29.77,10.0,West,9.2,-,N/A,,Clear,280,2013-12-19 11:36:00
6:56 AM,21.7,19.0,89,29.77,10.0,WNW,6.9,-,N/A,,Clear,290,2013-12-19 11:56:00
7:15 AM,21.9,19.2,89,29.78,10.0,WNW,6.9,-,N/A,,Clear,290,2013-12-19 12:15:00
7:36 AM,21.9,19.2,89,29.79,10.0,West,8.1,-,N/A,,Clear,270,2013-12-19 12:36:00
7:56 AM,21.6,18.9,89,29.80,10.0,West,9.2,-,N/A,,Scattered Clouds,280,2013-12-19 12:56:00
8:15 AM,22.6,19.8,89,29.80,10.0,West,6.9,-,N/A,,Overcast,280,2013-12-19 13:15:00
8:36 AM,23.0,20.1,89,29.82,10.0,West,9.2,-,N/A,,Overcast,270,2013-12-19 13:36:00
8:56 AM,24.1,20.7,87,29.82,10.0,West,9.2,-,N/A,,Overcast,270,2013-12-19 13:56:00
9:15 AM,25.3,21.9,87,29.84,10.0,West,10.4,-,N/A,,Overcast,260,2013-12-19 14:15:00
9:36 AM,25.5,22.6,89,29.86,10.0,West,9.2,-,N/A,,Overcast,260,2013-12-19 14:36:00
9:56 AM,25.7,23.0,89,29.86,10.0,West,12.7,18.4,N/A,,Overcast,270,2013-12-19 14:56:00
10:16 AM,25.7,23.0,89,29.88,10.0,West,11.5,-,N/A,,Overcast,280,2013-12-19 15:16:00
10:36 AM,26.6,23.9,90,29.88,10.0,WNW,10.4,-,N/A,,Overcast,290,2013-12-19 15:36:00
10:55 AM,26.6,23.9,90,29.90,10.0,West,11.5,16.1,N/A,,Overcast,280,2013-12-19 15:55:00
11:16 AM,26.6,24.3,91,29.91,10.0,WNW,11.5,-,N/A,,Overcast,290,2013-12-19 16:16:00
11:36 AM,26.6,24.1,90,29.93,10.0,West,12.7,-,N/A,,Overcast,280,2013-12-19 16:36:00
11:55 AM,27.0,24.1,89,29.93,10.0,WNW,11.5,16.1,N/A,,Overcast,300,2013-12-19 16:55:00
12:16 PM,27.0,23.4,86,29.93,10.0,WNW,10.4,-,N/A,,Overcast,300,2013-12-19 17:16:00
12:36 PM,27.0,23.0,85,29.94,10.0,NNW,11.5,16.1,N/A,,Overcast,330,2013-12-19 17:36:00
12:55 PM,27.0,21.9,81,29.95,10.0,NW,9.2,16.1,N/A,,Overcast,320,2013-12-19 17:55:00
1:16 PM,27.0,21.0,78,29.96,10.0,NW,9.2,18.4,N/A,,Overcast,310,2013-12-19 18:16:00
1:36 PM,27.0,21.2,79,29.96,10.0,NW,11.5,16.1,N/A,,Overcast,310,2013-12-19 18:36:00
1:55 PM,26.4,20.3,78,29.97,10.0,NW,9.2,17.3,N/A,,Overcast,320,2013-12-19 18:55:00
2:16 PM,26.6,20.5,78,29.96,10.0,NW,12.7,16.1,N/A,,Overcast,320,2013-12-19 19:16:00
2:35 PM,26.4,20.3,78,29.97,10.0,NW,8.1,17.3,N/A,,Overcast,320,2013-12-19 19:35:00
2:56 PM,26.2,20.1,78,29.98,10.0,NW,8.1,17.3,N/A,,Overcast,320,2013-12-19 19:56:00
3:16 PM,26.2,20.1,78,29.99,10.0,NNW,11.5,17.3,N/A,,Overcast,330,2013-12-19 20:16:00
3:35 PM,25.7,19.8,78,30.00,10.0,NNW,8.1,-,N/A,,Overcast,340,2013-12-19 20:35:00
3:56 PM,25.5,20.7,82,30.01,10.0,NNW,6.9,-,N/A,,Overcast,340,2013-12-19 20:56:00
4:16 PM,24.8,20.1,82,30.01,10.0,North,5.8,-,N/A,,Overcast,350,2013-12-19 21:16:00
4:35 PM,24.6,20.1,83,30.01,10.0,North,5.8,-,N/A,,Overcast,360,2013-12-19 21:35:00
4:56 PM,24.3,19.4,82,30.01,10.0,North,6.9,-,N/A,,Overcast,350,2013-12-19 21:56:00
5:16 PM,23.4,18.1,80,30.00,10.0,North,9.2,-,N/A,,Mostly Cloudy,350,2013-12-19 22:16:00
5:35 PM,23.0,18.5,83,30.02,10.0,North,10.4,-,N/A,,Mostly Cloudy,350,2013-12-19 22:35:00
5:56 PM,22.6,18.0,82,30.02,10.0,North,10.4,-,N/A,,Overcast,350,2013-12-19 22:56:00
6:16 PM,22.1,17.8,83,30.02,10.0,North,8.1,16.1,N/A,,Overcast,360,2013-12-19 23:16:00
6:35 PM,21.2,17.4,85,30.01,10.0,North,9.2,-,N/A,,Overcast,10,2013-12-19 23:35:00
6:56 PM,20.8,17.2,86,30.02,10.0,North,8.1,16.1,N/A,,Mostly Cloudy,350,2013-12-19 23:56:00
7:16 PM,20.3,16.5,85,30.03,10.0,NNW,8.1,-,N/A,,Mostly Cloudy,340,2013-12-20 00:16:00
7:36 PM,20.3,16.7,86,30.05,10.0,NNW,8.1,-,N/A,,Overcast,330,2013-12-20 00:36:00
7:56 PM,20.1,16.5,86,30.05,10.0,NNW,9.2,-,N/A,,Overcast,330,2013-12-20 00:56:00
8:16 PM,20.1,16.7,87,30.05,10.0,NNW,9.2,-,N/A,,Overcast,340,2013-12-20 01:16:00
8:36 PM,20.3,16.9,87,30.05,10.0,North,6.9,-,N/A,,Overcast,350,2013-12-20 01:36:00
8:56 PM,20.3,17.1,87,30.04,10.0,North,10.4,-,N/A,,Overcast,360,2013-12-20 01:56:00
9:16 PM,20.3,16.7,86,30.04,10.0,North,9.2,-,N/A,,Overcast,360,2013-12-20 02:16:00
9:36 PM,20.3,16.7,86,30.04,10.0,North,6.9,-,N/A,,Overcast,360,2013-12-20 02:36:00
9:56 PM,20.3,16.7,86,30.04,10.0,North,5.8,-,N/A,,Overcast,10,2013-12-20 02:56:00
10:16 PM,20.7,17.1,86,30.04,10.0,North,5.8,-,N/A,,Overcast,360,2013-12-20 03:16:00
10:36 PM,20.5,16.9,86,30.02,10.0,NNE,13.8,-,N/A,,Overcast,20,2013-12-20 03:36:00
10:56 PM,20.7,16.7,85,30.03,10.0,NNE,10.4,-,N/A,,Overcast,30,2013-12-20 03:56:00
11:16 PM,20.3,16.9,87,30.02,10.0,NNE,13.8,-,N/A,,Overcast,20,2013-12-20 04:16:00
11:36 PM,20.1,15.8,83,30.02,10.0,NNE,13.8,-,N/A,,Overcast,30,2013-12-20 04:36:00
11:55 PM,19.8,14.7,81,30.02,10.0,NNE,11.5,17.3,N/A,,Overcast,30,2013-12-20 04:55:00